Year,Month,Day,Hour,Minute,Value (Times are PST for temperature in C)
2009,05,17,00,00,13.20
2009,05,17,00,01,13.20
2009,05,17,00,02,13.20
2009,05,17,00,03,13.20
2009,05,17,00,04,13.20
2009,05,17,00,05,13.20
2009,05,17,00,06,13.20
2009,05,17,00,07,13.20
2009,05,17,00,08,13.10
2009,05,17,00,09,13.10
2009,05,17,00,10,13.10
2009,05,17,00,11,13.10
2009,05,17,00,12,13.10
2009,05,17,00,13,13.10
2009,05,17,00,14,13.10
2009,05,17,00,15,13.10
2009,05,17,00,16,13.10
2009,05,17,00,17,13.10
2009,05,17,00,18,13.10
2009,05,17,00,19,13.10
2009,05,17,00,20,13.10
2009,05,17,00,21,13.10
2009,05,17,00,22,13.10
2009,05,17,00,23,13.10
2009,05,17,00,24,13.10
2009,05,17,00,25,13.10
2009,05,17,00,26,13.10
2009,05,17,00,27,13.10
2009,05,17,00,28,13.10
2009,05,17,00,29,13.10
2009,05,17,00,30,13.10
2009,05,17,00,31,13.10
2009,05,17,00,32,13.10
2009,05,17,00,33,13.00
2009,05,17,00,34,13.10
2009,05,17,00,35,13.10
2009,05,17,00,36,13.10
2009,05,17,00,37,13.10
2009,05,17,00,38,13.10
2009,05,17,00,39,13.10
2009,05,17,00,40,13.10
2009,05,17,00,41,13.10
2009,05,17,00,42,13.10
2009,05,17,00,43,13.10
2009,05,17,00,44,13.10
2009,05,17,00,45,13.10
2009,05,17,00,46,13.10
2009,05,17,00,47,13.00
2009,05,17,00,48,13.00
2009,05,17,00,49,13.00
2009,05,17,00,50,13.00
2009,05,17,00,51,13.00
2009,05,17,00,52,13.00
2009,05,17,00,53,13.00
2009,05,17,00,54,13.00
2009,05,17,00,55,13.00
2009,05,17,00,56,13.00
2009,05,17,00,57,13.00
2009,05,17,00,58,13.00
2009,05,17,00,59,13.00
2009,05,17,01,00,13.00
2009,05,17,01,01,13.00
2009,05,17,01,02,13.00
2009,05,17,01,03,13.00
2009,05,17,01,04,13.00
2009,05,17,01,05,13.00
2009,05,17,01,06,13.00
2009,05,17,01,07,13.00
2009,05,17,01,08,13.00
2009,05,17,01,09,13.00
2009,05,17,01,10,12.90
2009,05,17,01,11,12.90
2009,05,17,01,12,12.90
2009,05,17,01,13,12.90
2009,05,17,01,14,12.90
2009,05,17,01,15,12.90
2009,05,17,01,16,12.90
2009,05,17,01,17,12.90
2009,05,17,01,18,12.90
2009,05,17,01,19,12.90
2009,05,17,01,20,12.90
2009,05,17,01,21,12.90
2009,05,17,01,22,12.90
2009,05,17,01,23,12.90
2009,05,17,01,24,12.90
2009,05,17,01,25,12.90
2009,05,17,01,26,12.90
2009,05,17,01,27,12.90
2009,05,17,01,28,12.80
2009,05,17,01,29,12.80
2009,05,17,01,30,12.80
2009,05,17,01,31,12.80
2009,05,17,01,32,12.80
2009,05,17,01,33,12.80
2009,05,17,01,34,12.80
2009,05,17,01,35,12.80
2009,05,17,01,36,12.80
2009,05,17,01,37,12.80
2009,05,17,01,38,12.80
2009,05,17,01,39,12.80
2009,05,17,01,40,12.80
2009,05,17,01,41,12.80
2009,05,17,01,42,12.80
2009,05,17,01,43,12.80
2009,05,17,01,44,12.80
2009,05,17,01,49,12.80
2009,05,17,01,50,12.80
2009,05,17,01,51,12.80
2009,05,17,01,52,12.80
2009,05,17,01,53,12.80
2009,05,17,01,54,12.80
2009,05,17,01,55,12.80
2009,05,17,01,56,12.80
2009,05,17,01,57,12.80
2009,05,17,01,58,12.80
2009,05,17,01,59,12.80
2009,05,17,02,00,12.80
2009,05,17,02,01,12.80
2009,05,17,02,02,12.80
2009,05,17,02,03,12.80
2009,05,17,02,04,12.80
2009,05,17,02,05,12.80
2009,05,17,02,06,12.80
2009,05,17,02,07,12.80
2009,05,17,02,08,12.80
2009,05,17,02,09,12.80
2009,05,17,02,10,12.80
2009,05,17,02,11,12.80
2009,05,17,02,12,12.80
2009,05,17,02,13,12.80
2009,05,17,02,14,12.80
2009,05,17,02,15,12.80
2009,05,17,02,16,12.80
2009,05,17,02,17,12.80
2009,05,17,02,18,12.80
2009,05,17,02,19,12.80
2009,05,17,02,20,12.80
2009,05,17,02,21,12.80
2009,05,17,02,22,12.80
2009,05,17,02,23,12.80
2009,05,17,02,24,12.80
2009,05,17,02,25,12.80
2009,05,17,02,26,12.80
2009,05,17,02,27,12.80
2009,05,17,02,28,12.80
2009,05,17,02,29,12.80
2009,05,17,02,30,12.80
2009,05,17,02,31,12.80
2009,05,17,02,32,12.80
2009,05,17,02,33,12.80
2009,05,17,02,34,12.80
2009,05,17,02,35,12.80
2009,05,17,02,36,12.80
2009,05,17,02,37,12.80
2009,05,17,02,38,12.80
2009,05,17,02,39,12.80
2009,05,17,02,40,12.80
2009,05,17,02,41,12.80
2009,05,17,02,42,12.80
2009,05,17,02,43,12.80
2009,05,17,02,44,12.80
2009,05,17,02,45,12.80
2009,05,17,02,46,12.80
2009,05,17,02,47,12.80
2009,05,17,02,48,12.80
2009,05,17,02,49,12.80
2009,05,17,02,50,12.80
2009,05,17,02,51,12.80
2009,05,17,02,52,12.80
2009,05,17,02,53,12.80
2009,05,17,02,54,12.80
2009,05,17,02,55,12.80
2009,05,17,02,56,12.80
2009,05,17,02,57,12.80
2009,05,17,02,58,12.80
2009,05,17,02,59,12.80
2009,05,17,03,00,12.80
2009,05,17,03,01,12.80
2009,05,17,03,02,12.80
2009,05,17,03,03,12.80
2009,05,17,03,04,12.80
2009,05,17,03,05,12.80
2009,05,17,03,06,12.80
2009,05,17,03,07,12.80
2009,05,17,03,08,12.80
2009,05,17,03,09,12.90
2009,05,17,03,10,12.90
2009,05,17,03,11,12.90
2009,05,17,03,12,12.90
2009,05,17,03,13,12.90
2009,05,17,03,14,12.90
2009,05,17,03,15,12.90
2009,05,17,03,16,12.90
2009,05,17,03,17,12.90
2009,05,17,03,18,12.90
2009,05,17,03,19,12.90
2009,05,17,03,20,12.80
2009,05,17,03,21,12.80
2009,05,17,03,22,12.90
2009,05,17,03,23,12.90
2009,05,17,03,24,12.90
2009,05,17,03,25,12.90
2009,05,17,03,26,12.90
2009,05,17,03,27,12.90
2009,05,17,03,28,12.90
2009,05,17,03,29,12.90
2009,05,17,03,30,12.90
2009,05,17,03,31,12.90
2009,05,17,03,32,12.90
2009,05,17,03,33,12.90
2009,05,17,03,34,12.90
2009,05,17,03,35,12.90
2009,05,17,03,36,12.90
2009,05,17,03,37,12.90
2009,05,17,03,38,12.90
2009,05,17,03,39,12.90
2009,05,17,03,40,12.90
2009,05,17,03,41,12.90
2009,05,17,03,42,12.80
2009,05,17,03,43,12.80
2009,05,17,03,44,12.80
2009,05,17,03,45,12.80
2009,05,17,03,46,12.80
2009,05,17,03,47,12.80
2009,05,17,03,48,12.80
2009,05,17,03,49,12.80
2009,05,17,03,50,12.80
2009,05,17,03,51,12.80
2009,05,17,03,52,12.80
2009,05,17,03,53,12.80
2009,05,17,03,54,12.80
2009,05,17,03,55,12.80
2009,05,17,03,56,12.80
2009,05,17,03,57,12.80
2009,05,17,03,58,12.80
2009,05,17,03,59,12.80
2009,05,17,04,00,12.80
2009,05,17,04,01,12.80
2009,05,17,04,02,12.80
2009,05,17,04,03,12.80
2009,05,17,04,04,12.80
2009,05,17,04,05,12.80
2009,05,17,04,06,12.80
2009,05,17,04,07,12.80
2009,05,17,04,08,12.80
2009,05,17,04,09,12.80
2009,05,17,04,10,12.80
2009,05,17,04,11,12.80
2009,05,17,04,12,12.80
2009,05,17,04,13,12.80
2009,05,17,04,14,12.80
2009,05,17,04,15,12.80
2009,05,17,04,16,12.70
2009,05,17,04,17,12.70
2009,05,17,04,18,12.70
2009,05,17,04,19,12.70
2009,05,17,04,20,12.70
2009,05,17,04,21,12.70
2009,05,17,04,22,12.70
2009,05,17,04,23,12.70
2009,05,17,04,24,12.70
2009,05,17,04,25,12.60
2009,05,17,04,26,12.60
2009,05,17,04,27,12.60
2009,05,17,04,28,12.60
2009,05,17,04,29,12.60
2009,05,17,04,30,12.60
2009,05,17,04,31,12.60
2009,05,17,04,32,12.60
2009,05,17,04,33,12.50
2009,05,17,04,34,12.50
2009,05,17,04,35,12.50
2009,05,17,04,36,12.50
2009,05,17,04,37,12.50
2009,05,17,04,38,12.40
2009,05,17,04,39,12.40
2009,05,17,04,40,12.40
2009,05,17,04,41,12.40
2009,05,17,04,42,12.40
2009,05,17,04,43,12.40
2009,05,17,04,44,12.30
2009,05,17,04,45,12.30
2009,05,17,04,46,12.30
2009,05,17,04,47,12.30
2009,05,17,04,48,12.30
2009,05,17,04,49,12.30
2009,05,17,04,50,12.30
2009,05,17,04,51,12.30
2009,05,17,04,52,12.30
2009,05,17,04,53,12.30
2009,05,17,04,54,12.20
2009,05,17,04,55,12.20
2009,05,17,04,56,12.20
2009,05,17,04,57,12.20
2009,05,17,04,58,12.20
2009,05,17,04,59,12.20
2009,05,17,05,00,12.20
2009,05,17,05,01,12.20
2009,05,17,05,02,12.20
2009,05,17,05,03,12.20
2009,05,17,05,04,12.20
2009,05,17,05,05,12.20
2009,05,17,05,06,12.20
2009,05,17,05,07,12.20
2009,05,17,05,08,12.20
2009,05,17,05,09,12.20
2009,05,17,05,10,12.20
2009,05,17,05,11,12.20
2009,05,17,05,12,12.20
2009,05,17,05,13,12.20
2009,05,17,05,14,12.20
2009,05,17,05,15,12.20
2009,05,17,05,16,12.20
2009,05,17,05,17,12.20
2009,05,17,05,18,12.20
2009,05,17,05,19,12.20
2009,05,17,05,20,12.20
2009,05,17,05,21,12.20
2009,05,17,05,22,12.20
2009,05,17,05,23,12.20
2009,05,17,05,24,12.20
2009,05,17,05,25,12.20
2009,05,17,05,26,12.20
2009,05,17,05,27,12.20
2009,05,17,05,28,12.20
2009,05,17,05,29,12.20
2009,05,17,05,30,12.20
2009,05,17,05,31,12.20
2009,05,17,05,32,12.20
2009,05,17,05,33,12.20
2009,05,17,05,34,12.20
2009,05,17,05,35,12.20
2009,05,17,05,36,12.20
2009,05,17,05,37,12.20
2009,05,17,05,38,12.20
2009,05,17,05,39,12.20
2009,05,17,05,40,12.20
2009,05,17,05,41,12.20
2009,05,17,05,42,12.20
2009,05,17,05,43,12.20
2009,05,17,05,44,12.20
2009,05,17,05,45,12.20
2009,05,17,05,46,12.20
2009,05,17,05,47,12.20
2009,05,17,05,48,12.20
2009,05,17,05,49,12.20
2009,05,17,05,50,12.20
2009,05,17,05,51,12.20
2009,05,17,05,52,12.20
2009,05,17,05,53,12.20
2009,05,17,05,54,12.20
2009,05,17,05,55,12.20
2009,05,17,05,56,12.20
2009,05,17,05,57,12.20
2009,05,17,05,58,12.20
2009,05,17,05,59,12.20
2009,05,17,06,00,12.20
2009,05,17,06,01,12.20
2009,05,17,06,02,12.20
2009,05,17,06,03,12.20
2009,05,17,06,04,12.20
2009,05,17,06,05,12.20
2009,05,17,06,06,12.20
2009,05,17,06,07,12.20
2009,05,17,06,08,12.20
2009,05,17,06,09,12.20
2009,05,17,06,10,12.20
2009,05,17,06,11,12.30
2009,05,17,06,12,12.30
2009,05,17,06,13,12.30
2009,05,17,06,14,12.30
2009,05,17,06,15,12.30
2009,05,17,06,16,12.30
2009,05,17,06,17,12.30
2009,05,17,06,18,12.30
2009,05,17,06,19,12.30
2009,05,17,06,20,12.30
2009,05,17,06,21,12.30
2009,05,17,06,22,12.30
2009,05,17,06,23,12.30
2009,05,17,06,24,12.30
2009,05,17,06,25,12.30
2009,05,17,06,26,12.30
2009,05,17,06,27,12.30
2009,05,17,06,28,12.30
2009,05,17,06,29,12.40
2009,05,17,06,30,12.40
2009,05,17,06,31,12.40
2009,05,17,06,32,12.40
2009,05,17,06,33,12.40
2009,05,17,06,34,12.40
2009,05,17,06,35,12.40
2009,05,17,06,36,12.50
2009,05,17,06,37,12.50
2009,05,17,06,38,12.50
2009,05,17,06,39,12.50
2009,05,17,06,40,12.60
2009,05,17,06,41,12.60
2009,05,17,06,42,12.60
2009,05,17,06,43,12.60
2009,05,17,06,44,12.60
2009,05,17,06,45,12.60
2009,05,17,06,46,12.60
2009,05,17,06,47,12.60
2009,05,17,06,48,12.70
2009,05,17,06,49,12.70
2009,05,17,06,50,12.70
2009,05,17,06,51,12.70
2009,05,17,06,52,12.70
2009,05,17,06,53,12.70
2009,05,17,06,54,12.70
2009,05,17,06,55,12.70
2009,05,17,06,56,12.70
2009,05,17,06,57,12.70
2009,05,17,06,58,12.70
2009,05,17,06,59,12.70
2009,05,17,07,00,12.70
2009,05,17,07,01,12.70
2009,05,17,07,02,12.70
2009,05,17,07,03,12.70
2009,05,17,07,04,12.70
2009,05,17,07,05,12.70
2009,05,17,07,06,12.70
2009,05,17,07,07,12.70
2009,05,17,07,08,12.70
2009,05,17,07,09,12.70
2009,05,17,07,10,12.70
2009,05,17,07,11,12.70
2009,05,17,07,12,12.70
2009,05,17,07,13,12.70
2009,05,17,07,14,12.70
2009,05,17,07,15,12.70
2009,05,17,07,16,12.70
2009,05,17,07,17,12.80
2009,05,17,07,18,12.80
2009,05,17,07,19,12.80
2009,05,17,07,20,12.80
2009,05,17,07,21,12.80
2009,05,17,07,22,12.80
2009,05,17,07,23,12.80
2009,05,17,07,24,12.80
2009,05,17,07,25,12.80
2009,05,17,07,26,12.80
2009,05,17,07,27,12.80
2009,05,17,07,28,12.80
2009,05,17,07,29,12.80
2009,05,17,07,30,12.80
2009,05,17,07,31,12.80
2009,05,17,07,32,12.80
2009,05,17,07,33,12.80
2009,05,17,07,34,12.80
2009,05,17,07,35,12.80
2009,05,17,07,36,12.80
2009,05,17,07,37,12.80
2009,05,17,07,38,12.90
2009,05,17,07,39,12.90
2009,05,17,07,40,12.90
2009,05,17,07,41,12.90
2009,05,17,07,42,12.90
2009,05,17,07,43,12.90
2009,05,17,07,44,12.90
2009,05,17,07,45,13.00
2009,05,17,07,46,13.00
2009,05,17,07,47,13.00
2009,05,17,07,48,13.00
2009,05,17,07,49,13.00
2009,05,17,07,50,13.10
2009,05,17,07,51,13.10
2009,05,17,07,52,13.10
2009,05,17,07,53,13.10
2009,05,17,07,54,13.10
2009,05,17,07,55,13.10
2009,05,17,07,56,13.10
2009,05,17,07,57,13.10
2009,05,17,07,58,13.20
2009,05,17,07,59,13.20
2009,05,17,08,00,13.20
2009,05,17,08,01,13.20
2009,05,17,08,02,13.20
2009,05,17,08,03,13.20
2009,05,17,08,04,13.20
2009,05,17,08,05,13.20
2009,05,17,08,06,13.20
2009,05,17,08,07,13.20
2009,05,17,08,08,13.20
2009,05,17,08,09,13.20
2009,05,17,08,10,13.20
2009,05,17,08,11,13.20
2009,05,17,08,12,13.20
2009,05,17,08,13,13.20
2009,05,17,08,14,13.30
2009,05,17,08,15,13.30
2009,05,17,08,16,13.30
2009,05,17,08,17,13.30
2009,05,17,08,18,13.30
2009,05,17,08,19,13.30
2009,05,17,08,20,13.30
2009,05,17,08,21,13.40
2009,05,17,08,22,13.40
2009,05,17,08,23,13.40
2009,05,17,08,24,13.50
2009,05,17,08,25,13.50
2009,05,17,08,26,13.60
2009,05,17,08,27,13.60
2009,05,17,08,28,13.60
2009,05,17,08,29,13.70
2009,05,17,08,30,13.70
2009,05,17,08,31,13.70
2009,05,17,08,32,13.70
2009,05,17,08,33,13.80
2009,05,17,08,34,13.80
2009,05,17,08,35,13.80
2009,05,17,08,36,13.90
2009,05,17,08,37,13.90
2009,05,17,08,38,14.00
2009,05,17,08,39,14.00
2009,05,17,08,40,14.10
2009,05,17,08,41,14.10
2009,05,17,08,42,14.20
2009,05,17,08,43,14.20
2009,05,17,08,44,14.30
2009,05,17,08,45,14.30
2009,05,17,08,46,14.40
2009,05,17,08,47,14.50
2009,05,17,08,48,14.60
2009,05,17,08,49,14.60
2009,05,17,08,50,14.70
2009,05,17,08,51,14.70
2009,05,17,08,52,14.80
2009,05,17,08,53,15.00
2009,05,17,08,54,15.00
2009,05,17,08,55,15.00
2009,05,17,08,56,15.10
2009,05,17,08,57,15.20
2009,05,17,08,58,15.30
2009,05,17,08,59,15.40
2009,05,17,09,00,15.50
2009,05,17,09,01,15.60
2009,05,17,09,02,15.70
2009,05,17,09,03,15.70
2009,05,17,09,04,15.80
2009,05,17,09,05,15.80
2009,05,17,09,06,15.90
2009,05,17,09,07,15.90
2009,05,17,09,08,16.00
2009,05,17,09,09,16.10
2009,05,17,09,10,16.10
2009,05,17,09,11,16.20
2009,05,17,09,12,16.30
2009,05,17,09,13,16.30
2009,05,17,09,14,16.40
2009,05,17,09,15,16.50
2009,05,17,09,16,16.60
2009,05,17,09,17,16.70
2009,05,17,09,18,16.80
2009,05,17,09,19,16.80
2009,05,17,09,20,16.90
2009,05,17,09,21,17.00
2009,05,17,09,22,17.00
2009,05,17,09,23,17.10
2009,05,17,09,24,17.20
2009,05,17,09,25,17.30
2009,05,17,09,26,17.30
2009,05,17,09,27,17.40
2009,05,17,09,28,17.40
2009,05,17,09,29,17.50
2009,05,17,09,30,17.60
2009,05,17,09,31,17.70
2009,05,17,09,32,17.80
2009,05,17,09,33,17.80
2009,05,17,09,34,17.80
2009,05,17,09,35,17.90
2009,05,17,09,36,17.90
2009,05,17,09,37,18.00
2009,05,17,09,38,18.10
2009,05,17,09,39,18.20
2009,05,17,09,40,18.30
2009,05,17,09,41,18.30
2009,05,17,09,42,18.20
2009,05,17,09,43,18.20
2009,05,17,09,44,18.20
2009,05,17,09,45,18.20
2009,05,17,09,46,18.20
2009,05,17,09,47,18.20
2009,05,17,09,48,18.20
2009,05,17,09,49,18.30
2009,05,17,09,50,18.30
2009,05,17,09,51,18.40
2009,05,17,09,52,18.40
2009,05,17,09,53,18.40
2009,05,17,09,54,18.50
2009,05,17,09,55,18.50
2009,05,17,09,56,18.60
2009,05,17,09,57,18.60
2009,05,17,09,58,18.70
2009,05,17,09,59,18.70
2009,05,17,10,00,18.80
2009,05,17,10,01,18.80
2009,05,17,10,02,18.80
2009,05,17,10,03,18.80
2009,05,17,10,04,18.80
2009,05,17,10,05,18.80
2009,05,17,10,06,18.80
2009,05,17,10,07,18.80
2009,05,17,10,08,18.80
2009,05,17,10,09,18.80
2009,05,17,10,10,18.80
2009,05,17,10,11,18.70
2009,05,17,10,12,18.70
2009,05,17,10,13,18.70
2009,05,17,10,14,18.70
2009,05,17,10,15,18.80
2009,05,17,10,16,18.80
2009,05,17,10,17,18.80
2009,05,17,10,18,18.80
2009,05,17,10,19,18.80
2009,05,17,10,20,18.80
2009,05,17,10,21,18.90
2009,05,17,10,22,18.90
2009,05,17,10,23,18.90
2009,05,17,10,24,18.90
2009,05,17,10,25,18.90
2009,05,17,10,26,18.90
2009,05,17,10,27,18.90
2009,05,17,10,28,18.90
2009,05,17,10,29,18.90
2009,05,17,10,30,18.90
2009,05,17,10,31,18.90
2009,05,17,10,32,18.90
2009,05,17,10,33,18.90
2009,05,17,10,34,18.90
2009,05,17,10,35,19.00
2009,05,17,10,36,19.00
2009,05,17,10,37,19.00
2009,05,17,10,38,19.00
2009,05,17,10,39,19.00
2009,05,17,10,40,19.10
2009,05,17,10,41,19.10
2009,05,17,10,42,19.10
2009,05,17,10,43,19.20
2009,05,17,10,44,19.20
2009,05,17,10,45,19.20
2009,05,17,10,46,19.40
2009,05,17,10,47,19.40
2009,05,17,10,48,19.50
2009,05,17,10,49,19.50
2009,05,17,10,50,19.60
2009,05,17,10,51,19.60
2009,05,17,10,52,19.70
2009,05,17,10,53,19.80
2009,05,17,10,54,19.90
2009,05,17,10,55,19.90
2009,05,17,10,56,20.00
2009,05,17,10,57,20.10
2009,05,17,10,58,20.20
2009,05,17,10,59,20.30
2009,05,17,11,00,20.40
2009,05,17,11,01,20.40
2009,05,17,11,02,20.50
2009,05,17,11,03,20.60
2009,05,17,11,04,20.60
2009,05,17,11,05,20.60
2009,05,17,11,06,20.60
2009,05,17,11,07,20.50
2009,05,17,11,08,20.40
2009,05,17,11,09,20.40
2009,05,17,11,10,20.30
2009,05,17,11,11,20.30
2009,05,17,11,12,20.30
2009,05,17,11,13,20.30
2009,05,17,11,14,20.20
2009,05,17,11,15,20.20
2009,05,17,11,16,20.20
2009,05,17,11,17,20.10
2009,05,17,11,18,20.00
2009,05,17,11,19,19.90
2009,05,17,11,20,19.80
2009,05,17,11,21,19.60
2009,05,17,11,22,19.50
2009,05,17,11,23,19.40
2009,05,17,11,24,19.40
2009,05,17,11,25,19.30
2009,05,17,11,26,19.20
2009,05,17,11,27,19.20
2009,05,17,11,28,19.20
2009,05,17,11,29,19.20
2009,05,17,11,30,19.20
2009,05,17,11,31,19.30
2009,05,17,11,32,19.30
2009,05,17,11,33,19.40
2009,05,17,11,34,19.40
2009,05,17,11,35,19.40
2009,05,17,11,36,19.40
2009,05,17,11,37,19.40
2009,05,17,11,38,19.40
2009,05,17,11,39,19.50
2009,05,17,11,40,19.60
2009,05,17,11,41,19.60
2009,05,17,11,42,19.70
2009,05,17,11,43,19.70
2009,05,17,11,44,19.70
2009,05,17,11,45,19.60
2009,05,17,11,46,19.50
2009,05,17,11,47,19.50
2009,05,17,11,48,19.40
2009,05,17,11,49,19.40
2009,05,17,11,50,19.40
2009,05,17,11,51,19.40
2009,05,17,11,52,19.40
2009,05,17,11,53,19.50
2009,05,17,11,54,19.60
2009,05,17,11,55,19.70
2009,05,17,11,56,19.80
2009,05,17,11,57,19.80
2009,05,17,11,58,19.80
2009,05,17,11,59,19.90
2009,05,17,12,00,19.90
2009,05,17,12,01,19.90
2009,05,17,12,02,19.90
2009,05,17,12,03,19.80
2009,05,17,12,04,19.80
2009,05,17,12,05,19.90
2009,05,17,12,06,19.90
2009,05,17,12,07,19.90
2009,05,17,12,08,19.90
2009,05,17,12,09,19.90
2009,05,17,12,10,19.90
2009,05,17,12,11,19.90
2009,05,17,12,12,20.00
2009,05,17,12,13,20.00
2009,05,17,12,14,20.00
2009,05,17,12,15,20.10
2009,05,17,12,16,20.10
2009,05,17,12,17,20.10
2009,05,17,12,18,20.10
2009,05,17,12,19,20.10
2009,05,17,12,20,20.20
2009,05,17,12,21,20.20
2009,05,17,12,22,20.30
2009,05,17,12,23,20.40
2009,05,17,12,24,20.40
2009,05,17,12,25,20.50
2009,05,17,12,26,20.60
2009,05,17,12,27,20.60
2009,05,17,12,28,20.70
2009,05,17,12,29,20.70
2009,05,17,12,30,20.70
2009,05,17,12,31,20.70
2009,05,17,12,32,20.70
2009,05,17,12,33,20.70
2009,05,17,12,34,20.60
2009,05,17,12,35,20.60
2009,05,17,12,36,20.60
2009,05,17,12,37,20.60
2009,05,17,12,38,20.70
2009,05,17,12,39,20.70
2009,05,17,12,40,20.80
2009,05,17,12,41,20.80
2009,05,17,12,42,20.80
2009,05,17,12,43,20.90
2009,05,17,12,44,21.00
2009,05,17,12,45,21.00
2009,05,17,12,46,21.10
2009,05,17,12,47,21.10
2009,05,17,12,48,21.10
2009,05,17,12,49,21.10
2009,05,17,12,50,21.10
2009,05,17,12,51,21.10
2009,05,17,12,52,21.20
2009,05,17,12,53,21.10
2009,05,17,12,54,21.10
2009,05,17,12,55,21.10
2009,05,17,12,56,21.20
2009,05,17,12,57,21.30
2009,05,17,12,58,21.30
2009,05,17,12,59,21.40
2009,05,17,13,00,21.50
2009,05,17,13,01,21.60
2009,05,17,13,02,21.60
2009,05,17,13,03,21.50
2009,05,17,13,04,21.50
2009,05,17,13,05,21.50
2009,05,17,13,06,21.60
2009,05,17,13,07,21.70
2009,05,17,13,08,21.70
2009,05,17,13,09,21.80
2009,05,17,13,10,21.80
2009,05,17,13,11,21.90
2009,05,17,13,12,21.90
2009,05,17,13,13,22.00
2009,05,17,13,14,22.00
2009,05,17,13,15,22.00
2009,05,17,13,16,21.90
2009,05,17,13,17,21.90
2009,05,17,13,18,21.90
2009,05,17,13,19,22.00
2009,05,17,13,20,22.00
2009,05,17,13,21,22.00
2009,05,17,13,22,22.00
2009,05,17,13,23,21.90
2009,05,17,13,24,21.90
2009,05,17,13,25,21.90
2009,05,17,13,26,21.90
2009,05,17,13,27,21.90
2009,05,17,13,28,21.90
2009,05,17,13,29,21.90
2009,05,17,13,30,21.90
2009,05,17,13,31,21.90
2009,05,17,13,32,21.90
2009,05,17,13,33,21.90
2009,05,17,13,34,21.80
2009,05,17,13,35,21.80
2009,05,17,13,36,21.80
2009,05,17,13,37,21.70
2009,05,17,13,38,21.60
2009,05,17,13,39,21.50
2009,05,17,13,40,21.40
2009,05,17,13,41,21.50
2009,05,17,13,42,21.60
2009,05,17,13,43,21.60
2009,05,17,13,44,21.60
2009,05,17,13,45,21.70
2009,05,17,13,46,21.70
2009,05,17,13,47,21.70
2009,05,17,13,48,21.80
2009,05,17,13,49,21.80
2009,05,17,13,50,21.80
2009,05,17,13,51,21.80
2009,05,17,13,52,21.70
2009,05,17,13,53,21.60
2009,05,17,13,54,21.60
2009,05,17,13,55,21.60
2009,05,17,13,56,21.60
2009,05,17,13,57,21.60
2009,05,17,13,58,21.60
2009,05,17,13,59,21.60
2009,05,17,14,00,21.60
2009,05,17,14,01,21.60
2009,05,17,14,02,21.50
2009,05,17,14,03,21.50
2009,05,17,14,04,21.60
2009,05,17,14,05,21.60
2009,05,17,14,06,21.60
2009,05,17,14,07,21.50
2009,05,17,14,08,21.40
2009,05,17,14,09,21.30
2009,05,17,14,10,21.20
2009,05,17,14,11,21.20
2009,05,17,14,12,21.20
2009,05,17,14,13,21.20
2009,05,17,14,14,21.20
2009,05,17,14,15,21.30
2009,05,17,14,16,21.30
2009,05,17,14,17,21.30
2009,05,17,14,18,21.30
2009,05,17,14,19,21.40
2009,05,17,14,20,21.40
2009,05,17,14,21,21.50
2009,05,17,14,22,21.50
2009,05,17,14,23,21.60
2009,05,17,14,24,21.70
2009,05,17,14,25,21.70
2009,05,17,14,26,21.80
2009,05,17,14,27,21.80
2009,05,17,14,28,21.90
2009,05,17,14,29,21.90
2009,05,17,14,30,21.90
2009,05,17,14,31,21.80
2009,05,17,14,32,21.70
2009,05,17,14,33,21.70
2009,05,17,14,34,21.60
2009,05,17,14,35,21.50
2009,05,17,14,36,21.50
2009,05,17,14,37,21.50
2009,05,17,14,38,21.60
2009,05,17,14,39,21.70
2009,05,17,14,40,21.70
2009,05,17,14,41,21.80
2009,05,17,14,42,21.80
2009,05,17,14,43,21.80
2009,05,17,14,44,21.80
2009,05,17,14,45,21.80
2009,05,17,14,46,21.80
2009,05,17,14,47,21.90
2009,05,17,14,48,21.90
2009,05,17,14,49,21.90
2009,05,17,14,50,21.90
2009,05,17,14,51,21.90
2009,05,17,14,52,21.90
2009,05,17,14,53,21.90
2009,05,17,14,54,21.90
2009,05,17,14,55,21.80
2009,05,17,14,56,21.80
2009,05,17,14,57,21.80
2009,05,17,14,58,21.70
2009,05,17,14,59,21.70
2009,05,17,15,00,21.60
2009,05,17,15,01,21.50
2009,05,17,15,02,21.40
2009,05,17,15,03,21.30
2009,05,17,15,04,21.30
2009,05,17,15,05,21.20
2009,05,17,15,06,21.20
2009,05,17,15,07,21.20
2009,05,17,15,08,21.20
2009,05,17,15,09,21.30
2009,05,17,15,10,21.30
2009,05,17,15,11,21.30
2009,05,17,15,12,21.30
2009,05,17,15,13,21.40
2009,05,17,15,14,21.50
2009,05,17,15,15,21.50
2009,05,17,15,16,21.60
2009,05,17,15,17,21.60
2009,05,17,15,18,21.50
2009,05,17,15,19,21.50
2009,05,17,15,20,21.50
2009,05,17,15,21,21.50
2009,05,17,15,22,21.40
2009,05,17,15,23,21.40
2009,05,17,15,24,21.30
2009,05,17,15,25,21.30
2009,05,17,15,26,21.30
2009,05,17,15,27,21.20
2009,05,17,15,28,21.20
2009,05,17,15,29,21.20
2009,05,17,15,30,21.10
2009,05,17,15,31,21.10
2009,05,17,15,32,21.00
2009,05,17,15,33,21.00
2009,05,17,15,34,20.90
2009,05,17,15,35,20.90
2009,05,17,15,36,20.90
2009,05,17,15,37,20.90
2009,05,17,15,38,20.90
2009,05,17,15,39,20.90
2009,05,17,15,40,20.90
2009,05,17,15,41,20.90
2009,05,17,15,42,20.90
2009,05,17,15,43,20.80
2009,05,17,15,44,20.80
2009,05,17,15,45,20.70
2009,05,17,15,46,20.60
2009,05,17,15,47,20.60
2009,05,17,15,48,20.50
2009,05,17,15,49,20.50
2009,05,17,15,50,20.40
2009,05,17,15,51,20.30
2009,05,17,15,52,20.20
2009,05,17,15,53,20.00
2009,05,17,15,54,20.00
2009,05,17,15,55,20.00
2009,05,17,15,56,20.00
2009,05,17,15,57,20.10
2009,05,17,15,58,20.10
2009,05,17,15,59,20.10
2009,05,17,16,00,20.10
2009,05,17,16,01,20.20
2009,05,17,16,02,20.20
2009,05,17,16,03,20.30
2009,05,17,16,04,20.40
2009,05,17,16,05,20.50
2009,05,17,16,06,20.60
2009,05,17,16,07,20.70
2009,05,17,16,08,20.80
2009,05,17,16,09,20.80
2009,05,17,16,10,20.90
2009,05,17,16,11,20.90
2009,05,17,16,12,20.90
2009,05,17,16,13,20.90
2009,05,17,16,14,20.90
2009,05,17,16,15,20.90
2009,05,17,16,16,20.90
2009,05,17,16,17,21.00
2009,05,17,16,18,21.10
2009,05,17,16,19,21.10
2009,05,17,16,20,21.20
2009,05,17,16,21,21.30
2009,05,17,16,22,21.10
2009,05,17,16,23,21.00
2009,05,17,16,24,20.80
2009,05,17,16,25,20.60
2009,05,17,16,26,20.40
2009,05,17,16,27,20.30
2009,05,17,16,28,20.40
2009,05,17,16,29,20.40
2009,05,17,16,30,20.40
2009,05,17,16,31,20.50
2009,05,17,16,32,20.60
2009,05,17,16,33,20.60
2009,05,17,16,34,20.70
2009,05,17,16,35,20.70
2009,05,17,16,36,20.50
2009,05,17,16,37,20.30
2009,05,17,16,38,20.20
2009,05,17,16,39,20.10
2009,05,17,16,40,20.00
2009,05,17,16,41,19.90
2009,05,17,16,42,19.80
2009,05,17,16,43,19.70
2009,05,17,16,44,19.70
2009,05,17,16,45,19.70
2009,05,17,16,46,19.70
2009,05,17,16,47,19.80
2009,05,17,16,48,19.70
2009,05,17,16,49,19.70
2009,05,17,16,50,19.70
2009,05,17,16,51,19.70
2009,05,17,16,52,19.80
2009,05,17,16,53,19.80
2009,05,17,16,54,19.90
2009,05,17,16,55,20.00
2009,05,17,16,56,20.10
2009,05,17,16,57,20.20
2009,05,17,16,58,20.30
2009,05,17,16,59,20.40
2009,05,17,17,00,20.40
2009,05,17,17,01,20.40
2009,05,17,17,02,20.50
2009,05,17,17,03,20.50
2009,05,17,17,04,20.50
2009,05,17,17,05,20.60
2009,05,17,17,06,20.70
2009,05,17,17,07,20.70
2009,05,17,17,08,20.80
2009,05,17,17,09,20.80
2009,05,17,17,10,20.80
2009,05,17,17,11,20.80
2009,05,17,17,12,20.90
2009,05,17,17,13,20.90
2009,05,17,17,14,20.90
2009,05,17,17,15,21.00
2009,05,17,17,16,21.10
2009,05,17,17,17,21.10
2009,05,17,17,18,20.90
2009,05,17,17,19,20.80
2009,05,17,17,20,20.80
2009,05,17,17,21,20.80
2009,05,17,17,22,20.80
2009,05,17,17,23,20.80